User: anonymous   Login
Location: Wellington
(41.3000°S, 174.7830°E)
Time: 10:02:26
(UTC+13:00)
Language:

Cosmos 1455 - Orbit

View from above orbital plane
View from above orbital plane
View from above satellite
View from above satellite

Ground track
Ground track

The orbit data is extracted from the following two-line orbital elements,

1 14032U 83037A   19081.79558501  .00000760  00000-0  35773-4 0  9992
2 14032  82.5184 171.3173 0016754 197.3272 162.7392 15.17873502958985
Epoch (UTC): 22 March 2019 19:05:38
Eccentricity: 0.0016754
inclination: 82.5184°
perigee height: 501 km
apogee height: 524 km
right ascension of ascending node: 171.3173°
argument of perigee: 197.3272°
revolutions per day: 15.17873502
mean anomaly at epoch: 162.7392°
orbit number at epoch: 95898

The dashed part of the orbit path shows where the satellite is in the earth's shadow,  

DLR